Weather in Koryakino

Russia / Arkhangel'skaya Oblast'     62°06′09″N   38°52′46″E
temp.,
°C
wind,
m/s
gust,
m/s
humid.,
%
clouds,
%
prec.,
mm/h
press.,
hPa
HPBL,
m
14 april, wed
wed1400:00+6s2399100 0.0 101976
03:00+7s2699100 0.0 1018170
06:00+7s2799100 0.0 1016228
09:00+7s2699100 0.6 1015230
12:00+8sw2698100 0.8 1014369
15:00+4nw3895100 2.1 1017485
18:00+4wnw2791100 0.5 1018493
21:00+3wsw2793100 0.6 1021349
15 april, thu
thu1500:00+2wnw2894100 0.0 1022276
03:000nw279298 0.0 1024217
06:00−1nnw279147 0.0 1026214
09:00+3n25637 0.0 1028688
12:00+6n35440 0.0 10301312
15:00+7nne45410 0.0 10301482
18:00+5nne36520 0.0 1031475
21:00+1nne22720 0.0 103314
16 april, fri
fri1600:000nne11755 0.0 103310
03:00−1nw00745 0.0 103410
06:000wsw11725 0.0 103411
09:00+5w12495 0.0 1035433
12:00+8nw23422 0.0 1034921
15:00+9nnw23430 0.0 10341181
18:00+8nnw23605 0.0 103397
21:00+4n22790 0.0 103435
17 april, sat
sat1700:00+2n22820 0.0 103514
03:000nnw11850 0.0 103610
06:00+1nnw118240 0.0 103730
09:00+6nnw23615 0.0 1036390
12:00+10nnw23483 0.0 10361134
15:00+11nnw23435 0.0 10341531
18:00+10nnw24525 0.0 1034250
21:00+6nw22710 0.0 103415
18 april, sun
sun1800:00+4n11800 0.0 103410
03:00+2nw11830 0.0 103510
06:00+2nnw11835 0.0 103510
09:00+7n12605 0.0 1035368
12:00+11nne12475 0.0 10351254
15:00+12nne12415 0.0 10341769
18:00+11ene124755 0.0 1034316
21:00+6se22675 0.0 103415